Regional Weather Roundup
Issued by NWS Green Bay, WI

Home | Current Version | Previous Version | Text Only | Print | Product List | Glossary On
Versions: 1 2 3 4 5 6 7 8 9 10 11 12 13 14 15 16 17 18 19 20 21 22 23 24 25 26 27 28 29 30 31 32 33 34 35 36 37 38 39 40 41 42 43 44 45 46 47 48 49 50
000
ASUS43 KGRB 231600
RWRGRB

NORTH-CENTRAL AND NORTHEAST WISCONSIN REGIONAL WEATHER ROUNDUP
NATIONAL WEATHER SERVICE GREEN BAY WI
1100 AM CDT SAT JUL 23 2016

WIZ005-009-010>012-018-019-231700-
NORTH CENTRAL WISCONSIN

CITY           SKY/WX    TMP DP  RH WIND       PRES   REMARKS
IRONWOOD       MOSUNNY   82  61  47 E10       29.93F
MANITOWISH WTR NOT AVBL
ARBOR VITAE    NOT AVBL
EAGLE RIVER    NOT AVBL
LAND O LAKES   NOT AVBL
RHINELANDER    SUNNY     83  57  41 SE9       30.02R
PHILLIPS       CLOUDY    82  64  55 SE7       29.97S
ANTIGO         NOT AVBL
TOMAHAWK       CLOUDY    82  61  49 CALM      30.01R
MERRILL        CLOUDY    83  64  53 S8        30.01R
$$

WIZ013-073-231700-
NORTHEAST WISCONSIN

CITY           SKY/WX    TMP DP  RH WIND       PRES   REMARKS
IRON MOUNTAIN  SUNNY     85  57  38 N5        29.98F
MARINETTE      SUNNY     79  62  56 E9        29.99S
$$

WIZ017-030-035>037-045-231700-
CENTRAL WISCONSIN

CITY           SKY/WX    TMP DP  RH WIND       PRES   REMARKS
MEDFORD        NOT AVBL
WAUSAU         MOSUNNY   84  64  50 S6        29.99R
MOSINEE        SUNNY     82  68  61 SE5       30.01R
MARSHFIELD     CLOUDY    84  69  60 S10       30.01R
WISC RAPIDS    CLOUDY    86  65  49 S6        30.01R
STEVENS POINT  NOT AVBL
WAUPACA        NOT AVBL
SHAWANO        NOT AVBL
CLINTONVILLE   CLOUDY    84  63  48 SE7       29.98S
WAUTOMA        CLOUDY    84  70  62 E6        30.00S HAZE
$$

WIZ038-039-048-051-231700-
FOX VALLEY

CITY           SKY/WX    TMP DP  RH WIND       PRES   REMARKS
NWS GREEN BAY  SUNNY     84  71  65 SE6       29.98S
APPLETON       MOSUNNY   84  61  45 SE9       29.97R
OSHKOSH        CLOUDY    83  69  62 E6        29.97F
FOND DU LAC    CLOUDY    86  70  58 CALM      29.98S HX  90
$$

WIZ022-050-052-231700-
EAST CENTRAL WISCONSIN

CITY           SKY/WX    TMP DP  RH WIND       PRES   REMARKS
EPHRAIM        FAIR      80  66  61 E6        29.97F
WASHINGTON ISL NOT AVBL
STURGEON BAY   SUNNY     84  67  56 SE6       29.98F
MANITOWOC      NOT AVBL
SHEBOYGAN      MOSUNNY   85  69  58 NE9       29.99S
$$

LMZ563-521-522-541>543-231700-
LAKESHORE

STATION/POSITION TIME  TEMP    WIND        PRES    VSBY  WAVE
                       AIR SEA DIR/SP/G                  HT/PER
                 (UTC) (F)     (DEG/KT/KT) (MB)    (MI)  (FT/S)
SHEBOYGAN LKSHOR 1500   72     360/  2/  2 1015.2F
KEWAUNEE LKSHORE 1500   75      40/  3/  4 1015.0F
NORTHPORT PIER   1500   73     330/  4/  6 1015.6S
N MID LAKE BUOY  1450   70 69   10/  4/  6 1015.0R         1
S GREEN BAY BUOY 1500   74 74   50/  8/ 10   N/A
CHAMBERS ISLAND  1500   75      10/  5/  6 1015.2F
MENOMINEE LKSHOR 1500   74      60/  5/  6 1014.5F
$$




USA.gov is the U.S. government's official web portal to all federal, state and local government web resources and services.